GW0059 Weather Reports


Display with metric or nautical units.
time (UTC)temp
F
wind
direction
speed
MPH
gust
MPH
rain 1hr
in
rain 24hr
in
rain mn
in
humidity
%
barometer
mb
20260905182350 92 186 1.0 6.0 0.00 0.01 0.00 57 1005.5
20260905181833 92 182 1.0 5.0 0.00 0.01 0.00 56 1005.5
20260905181359 92 179 3.0 11.0 0.00 0.01 0.00 58 1005.5
20260905180842 92 192 5.0 11.0 0.00 0.01 0.00 57 1005.4
20260905180345 92 217 2.0 4.0 0.00 0.01 0.00 56 1005.5
20260905175829 92 204 1.0 7.0 0.00 0.01 0.00 57 1005.5
20260905175326 91 211 2.0 7.0 0.00 0.01 0.00 57 1005.5
20260905174850 92 169 3.0 5.0 0.00 0.01 0.00 57 1005.6
20260905174352 92 193 2.0 4.0 0.00 0.01 0.00 58 1005.7
20260905173856 91 194 2.0 6.0 0.00 0.01 0.00 57 1005.9
20260905173400 91 195 3.0 8.0 0.00 0.01 0.00 58 1005.9
20260905172842 91 197 4.0 9.0 0.00 0.01 0.00 60 1006.0
20260905172339 91 144 5.0 9.0 0.00 0.01 0.00 57 1006.0
20260905171902 91 198 2.0 8.0 0.00 0.01 0.00 58 1006.2
20260905171345 91 180 3.0 8.0 0.00 0.01 0.00 59 1006.2
20260905170829 91 208 2.0 4.0 0.00 0.01 0.00 59 1006.3
20260905170334 90 205 2.0 7.0 0.00 0.01 0.00 60 1006.3
20260905165838 90 138 3.0 7.0 0.00 0.01 0.00 58 1006.5
20260905165355 90 188 3.0 4.0 0.00 0.01 0.00 58 1006.5
20260905164859 90 209 2.0 4.0 0.00 0.01 0.00 60 1006.6
20260905164346 89 205 1.0 4.0 0.00 0.01 0.00 61 1006.6
20260905163849 89 227 1.0 3.0 0.00 0.01 0.00 60 1006.7
20260905163352 88 199 1.0 3.0 0.00 0.01 0.00 60 1006.7
20260905162835 88 216 2.0 3.0 0.00 0.01 0.00 61 1006.7
20260905162330 88 196 2.0 3.0 0.00 0.01 0.00 59 1006.5
20260905161835 87 200 2.0 5.0 0.00 0.01 0.00 61 1006.6
20260905161339 87 234 2.0 5.0 0.00 0.01 0.00 61 1006.5
20260905160902 87 213 3.0 7.0 0.00 0.01 0.00 62 1006.7
20260905160325 87 149 4.0 7.0 0.00 0.01 0.00 61 1006.6
20260905155829 87 204 3.0 6.0 0.00 0.01 0.00 62 1006.8
20260905155347 87 199 3.0 7.0 0.00 0.01 0.00 62 1006.9
20260905154850 86 211 2.0 7.0 0.00 0.01 0.00 63 1006.9
20260905154354 86 202 1.0 3.0 0.00 0.01 0.00 63 1006.9
20260905153857 86 185 1.0 3.0 0.00 0.01 0.00 62 1006.9
20260905153339 86 205 1.0 3.0 0.00 0.01 0.00 61 1006.8
20260905152843 86 225 2.0 3.0 0.00 0.01 0.00 62 1006.8
20260905152400 86 175 1.0 8.0 0.00 0.01 0.00 63 1006.8
20260905151903 85 196 3.0 8.0 0.00 0.01 0.00 63 1006.9
20260905151326 85 202 3.0 4.0 0.00 0.01 0.00 63 1007.0
20260905150850 85 180 2.0 9.0 0.00 0.01 0.00 62 1007.0
20260905150353 84 120 5.0 9.0 0.00 0.01 0.00 61 1007.0
20260905145856 84 197 1.0 8.0 0.00 0.01 0.00 65 1006.9
20260905145352 84 163 3.0 8.0 0.00 0.01 0.00 64 1007.1
20260905144836 83 165 5.0 8.0 0.00 0.01 0.00 64 1007.1
20260905144324 83 187 3.0 8.0 0.00 0.01 0.00 65 1007.1
20260905143829 82 184 4.0 8.0 0.00 0.01 0.00 65 1007.2
20260905143332 82 185 2.0 11.0 0.00 0.01 0.00 68 1007.3
20260905142857 82 185 4.0 11.0 0.00 0.01 0.00 67 1007.2
20260905142334 82 186 3.0 8.0 0.00 0.01 0.00 68 1007.2
20260905141845 81 167 2.0 10.0 0.00 0.01 0.00 68 1007.4
20260905141335 80 160 5.0 10.0 0.00 0.01 0.00 67 1007.5
20260905140857 80 154 3.0 8.0 0.00 0.01 0.00 70 1007.5
20260905140333 79 198 4.0 8.0 0.00 0.01 0.00 70 1007.4
20260905135852 79 142 1.0 8.0 0.00 0.01 0.00 74 1007.5
20260905135354 78 157 4.0 10.0 0.00 0.01 0.00 70 1007.5
20260905060857 77 178 0.0 0.0 0.00 0.01 0.00 89 1005.9
20260905060340 77 178 0.0 0.0 0.00 0.01 0.00 89 1006.0
20260905055904 77 178 0.0 0.0 0.00 0.01 0.00 89 1005.9
20260905055338 77 178 0.0 0.0 0.00 0.01 0.00 89 1006.0
20260905054842 77 178 0.0 0.0 0.00 0.01 0.00 89 1006.0
20260905054325 77 178 0.0 0.0 0.00 0.01 0.00 88 1006.0
20260905053850 77 178 0.0 0.0 0.00 0.01 0.00 88 1006.0
20260905053333 77 178 0.0 0.0 0.00 0.01 0.00 87 1006.0
20260905052857 77 178 0.0 0.0 0.00 0.01 0.00 87 1006.1
20260905052353 77 178 0.0 0.0 0.00 0.01 0.00 87 1006.0
20260905051836 77 178 0.0 0.0 0.00 0.01 0.00 87 1006.1
20260905051359 77 178 0.0 0.0 0.00 0.01 0.00 87 1006.2
20260905050841 78 178 0.0 1.0 0.00 0.01 0.00 87 1006.2
20260905050345 78 178 0.0 1.0 0.00 0.01 0.00 87 1006.3
20260905045849 78 178 0.0 0.0 0.00 0.01 0.00 87 1006.4
20260905045329 78 178 0.0 0.0 0.00 0.01 0.00 87 1006.4
20260905044852 78 178 0.0 0.0 0.00 0.01 0.00 86 1006.5
20260905044355 78 178 0.0 0.0 0.00 0.01 0.00 86 1006.4
20260905043838 78 178 0.0 0.0 0.00 0.01 0.00 87 1006.5
20260905043342 78 178 0.0 0.0 0.00 0.01 0.00 87 1006.6
20260905042846 79 178 0.0 0.0 0.00 0.01 0.00 86 1006.6
20260905042403 79 178 0.0 0.0 0.00 0.01 0.00 86 1006.5
20260905041825 79 178 0.0 0.0 0.00 0.01 0.00 85 1006.4
20260905041349 79 178 0.0 0.0 0.00 0.01 0.00 85 1006.5
20260905040832 79 178 0.0 0.0 0.00 0.01 0.00 86 1006.4
20260905040336 79 178 0.0 0.0 0.00 0.01 0.00 85 1006.5
20260905035840 79 178 0.0 0.0 0.00 0.01 0.00 85 1006.4
20260905035336 80 178 0.0 0.0 0.00 0.01 0.01 85 1006.5
20260905034841 80 178 0.0 0.0 0.00 0.01 0.01 84 1006.4
20260905034404 80 178 0.0 0.0 0.00 0.01 0.01 84 1006.5
20260905033847 80 178 0.0 0.0 0.00 0.01 0.01 84 1006.5
20260905033331 80 178 0.0 0.0 0.00 0.01 0.01 84 1006.4
20260905032852 80 178 0.0 0.0 0.00 0.01 0.01 83 1006.4
20260905032348 80 178 0.0 0.0 0.00 0.01 0.01 83 1006.5
20260905031851 80 178 0.0 0.0 0.00 0.01 0.01 83 1006.5
20260905031353 80 178 0.0 0.0 0.00 0.01 0.01 82 1006.4
20260905030856 81 178 0.0 0.0 0.00 0.01 0.01 82 1006.4
20260905030359 81 178 0.0 0.0 0.00 0.01 0.01 82 1006.4
20260905025902 81 178 0.0 1.0 0.00 0.01 0.01 82 1006.3
20260905025337 81 178 0.0 0.0 0.00 0.01 0.01 81 1006.5
20260905024845 81 178 0.0 0.0 0.00 0.01 0.01 81 1006.5
20260905024328 81 178 0.0 1.0 0.00 0.01 0.01 81 1006.5
20260905023833 82 178 0.0 1.0 0.00 0.01 0.01 81 1006.5
20260905023356 82 178 0.0 0.0 0.00 0.01 0.01 81 1006.5
20260905022900 82 178 0.0 0.0 0.00 0.01 0.01 80 1006.5
20260905022355 82 178 0.0 0.0 0.00 0.01 0.01 80 1006.6
20260905021838 82 178 0.0 0.0 0.00 0.01 0.01 80 1006.5
20260905021344 82 178 0.0 1.0 0.00 0.01 0.01 80 1006.6
20260905020827 83 178 0.0 1.0 0.00 0.01 0.01 80 1006.6
20260905020351 83 111 0.0 2.0 0.00 0.01 0.01 80 1006.6
20260905015854 83 127 0.0 3.0 0.00 0.01 0.01 80 1006.5
20260905015329 83 72 0.0 3.0 0.00 0.01 0.01 80 1006.5
20260905014852 83 84 0.0 1.0 0.00 0.01 0.01 79 1006.4
20260905014355 83 131 0.0 2.0 0.00 0.01 0.01 78 1006.2
20260905013839 84 130 0.0 3.0 0.00 0.01 0.01 78 1006.1
20260905013402 84 92 1.0 3.0 0.00 0.01 0.01 77 1006.1
20260905012845 85 89 0.0 0.0 0.00 0.01 0.01 77 1006.0
20260905012340 85 89 0.0 0.0 0.00 0.01 0.01 76 1006.0
20260905011843 85 89 0.0 0.0 0.00 0.01 0.01 75 1005.9
20260905011328 85 89 0.0 0.0 0.00 0.01 0.01 73 1005.9
20260905010852 86 89 0.0 0.0 0.00 0.01 0.01 72 1005.9
20260905010338 86 89 0.0 0.0 0.00 0.01 0.01 72 1005.9
20260905005842 86 89 0.0 0.0 0.00 0.01 0.01 71 1005.9
20260905005338 87 89 0.0 0.0 0.00 0.01 0.01 71 1005.8
20260905004903 87 89 0.0 0.0 0.00 0.01 0.01 70 1005.8
20260905004345 87 89 0.0 0.0 0.00 0.01 0.01 69 1005.8
20260905003848 88 89 0.0 0.0 0.00 0.01 0.01 69 1005.8
20260905003352 88 89 0.0 0.0 0.00 0.01 0.01 68 1005.8
20260905002835 88 89 0.0 0.0 0.00 0.01 0.01 69 1005.8
20260905002351 89 89 0.0 0.0 0.00 0.01 0.01 68 1005.8
20260905001854 89 89 0.0 0.0 0.00 0.01 0.01 67 1005.7
20260905001337 89 89 0.0 0.0 0.00 0.01 0.01 68 1005.8
20260905000901 90 89 0.0 0.0 0.00 0.01 0.01 67 1005.8
20260905000343 90 89 0.0 0.0 0.00 0.01 0.01 66 1005.7
20260904235827 90 89 0.0 0.0 0.00 0.01 0.01 66 1005.7
20260904235344 90 89 0.0 0.0 0.00 0.01 0.01 65 1005.6
20260904234849 91 89 0.0 0.0 0.00 0.01 0.01 65 1005.5
20260904234331 91 89 0.0 0.0 0.00 0.01 0.01 65 1005.5
20260904233835 91 89 0.0 0.0 0.00 0.01 0.01 64 1005.5
20260904233339 91 89 0.0 0.0 0.00 0.01 0.01 63 1005.5
20260904232847 92 89 0.0 0.0 0.00 0.01 0.01 63 1005.6
20260904232342 92 89 0.0 0.0 0.01 0.01 0.01 63 1005.5
20260904231846 92 89 0.0 0.0 0.01 0.01 0.01 63 1005.4
20260904231350 92 89 0.0 0.0 0.01 0.01 0.01 63 1005.4
20260904230832 93 89 0.0 0.0 0.01 0.01 0.01 63 1005.5
20260904230337 93 89 0.0 0.0 0.01 0.01 0.01 62 1005.5
20260904225841 93 74 0.0 0.0 0.01 0.01 0.01 62 1005.6
20260904225337 94 77 0.0 1.0 0.01 0.01 0.01 61 1005.5
20260904224901 94 77 0.0 1.0 0.01 0.01 0.01 59 1005.6
20260904224344 95 182 0.0 0.0 0.01 0.01 0.01 59 1005.7
20260904223827 95 182 0.0 0.0 0.01 0.01 0.01 57 1005.6
20260904223352 96 157 0.0 0.0 0.01 0.01 0.01 57 1005.7
20260904222856 96 157 0.0 2.0 0.01 0.01 0.01 59 1005.7
20260904222352 96 136 0.0 2.0 0.00 0.00 0.00 56 1005.8
20260904221854 96 170 0.0 1.0 0.00 0.00 0.00 56 1005.7
20260904221337 96 227 0.0 0.0 0.00 0.00 0.00 55 1005.8
20260904220842 96 193 0.0 0.0 0.00 0.00 0.00 55 1005.8
20260904220325 96 69 0.0 1.0 0.00 0.00 0.00 55 1005.7
20260904215849 96 69 0.0 1.0 0.00 0.00 0.00 55 1005.8
20260904215405 96 180 0.0 3.0 0.00 0.00 0.00 54 1005.8
20260904214848 96 360 1.0 3.0 0.00 0.00 0.00 54 1005.7
20260904214336 96 171 0.0 6.0 0.00 0.00 0.00 54 1005.7
20260904213841 96 336 2.0 6.0 0.00 0.00 0.00 52 1005.8
20260904213405 96 267 1.0 5.0 0.00 0.00 0.00 54 1005.8
20260904212849 96 301 0.0 2.0 0.00 0.00 0.00 57 1005.8
20260904212343 96 25 0.0 2.0 0.00 0.00 0.00 56 1005.9
20260904211848 96 49 0.0 2.0 0.00 0.00 0.00 57 1005.9
20260904211331 95 296 0.0 2.0 0.00 0.00 0.00 59 1005.9
20260904210835 95 205 1.0 5.0 0.00 0.00 0.00 57 1005.9
20260904210359 95 60 2.0 5.0 0.00 0.00 0.00 55 1005.9
20260904205841 95 103 1.0 5.0 0.00 0.00 0.00 55 1006.0
20260904205358 95 173 0.0 3.0 0.00 0.00 0.00 57 1006.0
20260904204901 95 182 0.0 3.0 0.00 0.00 0.00 56 1006.0
20260904204404 95 169 0.0 6.0 0.00 0.00 0.00 55 1006.2
20260904203846 96 144 1.0 6.0 0.00 0.00 0.00 56 1006.3
20260904203330 96 113 0.0 6.0 0.00 0.00 0.00 55 1006.4
20260904202835 96 259 0.0 6.0 0.00 0.00 0.00 57 1006.4
20260904202352 96 327 4.0 7.0 0.00 0.00 0.00 54 1006.4
20260904201856 96 211 2.0 6.0 0.00 0.00 0.00 56 1006.6
20260904201339 96 193 0.0 6.0 0.00 0.00 0.00 56 1006.5
20260904200903 96 211 1.0 8.0 0.00 0.00 0.00 57 1006.5
20260904200347 96 334 1.0 8.0 0.00 0.00 0.00 57 1006.5
20260904195829 96 123 1.0 6.0 0.00 0.00 0.00 57 1006.6
20260904195329 96 360 3.0 6.0 0.00 0.00 0.00 55 1006.5
20260904194853 97 306 1.0 5.0 0.00 0.00 0.00 56 1006.6
20260904194356 97 146 1.0 5.0 0.00 0.00 0.00 55 1006.7
20260904193840 97 195 0.0 4.0 0.00 0.00 0.00 58 1006.7
20260904193404 97 325 1.0 4.0 0.00 0.00 0.00 54 1006.7
20260904192826 97 300 1.0 2.0 0.00 0.00 0.00 56 1006.9
20260904192404 97 144 1.0 2.0 0.00 0.00 0.00 55 1007.1
20260904191827 97 109 0.0 3.0 0.00 0.00 0.00 56 1007.1
20260904191331 97 18 0.0 4.0 0.00 0.00 0.00 56 1007.1
20260904190855 97 173 0.0 3.0 0.00 0.00 0.00 56 1007.1
20260904190358 97 93 1.0 4.0 0.00 0.00 0.00 55 1007.1
20260904185859 97 175 1.0 6.0 0.00 0.00 0.00 56 1007.3
20260904185334 98 344 1.0 8.0 0.00 0.00 0.00 55 1007.4
20260904184838 98 318 3.0 8.0 0.00 0.00 0.00 54 1007.5
20260904184343 98 199 0.0 8.0 0.00 0.00 0.00 55 1007.6
20260904183847 98 283 1.0 3.0 0.00 0.00 0.00 57 1007.6
20260904183330 98 156 1.0 2.0 0.00 0.00 0.00 57 1007.6
20260904182834 98 107 0.0 3.0 0.00 0.00 0.00 55 1007.6